Location: Huesca
(42.1318°N, 0.4078°W)
Time: 09:22:39
(UTC+02:00)

TIGRISAT - Pass Details

Date: 03 May 2024
Orbit: 594 x 672 km, 97.7° (Epoch: 21 May)

Event Time Altitude Azimuth Distance (km) Brightness Sun altitude
Rises 05:30:59 0° 151° (SSE) 2,885 ? -14.2°
Reaches altitude 10° 05:33:14 10° 146° (SE) 1,971 ? -13.9°
Maximum altitude 05:37:20 46° 73° (ENE) 818 ? -13.3°
Drops below altitude 10° 05:41:23 10° 360° (N) 1,951 ? -12.7°
Sets 05:43:36 0° 354° (N) 2,851 ? -12.3°
